Погода в Отаре

Погода в Отаре : погода сейчас, прогноз погоды и архив. Всё, что Вы хотите узнать о погоде в Отаре!

Поиск расширенной информации на нашем сайте:

Другие новости

Новости СМИ2

Главная страница сайта

Новости сайта

03.07.2017

Напоминаем, что на нашем специализированном сайте Метеоцентр.Азия вы можете получить высокодетализированные автоматические прогнозы погоды по пунктам России, СНГ и мира в авиационном формате (включающие направление и скорость ветра, видимость, явления погоды, количество и форму облачности, нижнюю и верхнюю границу облачности).


Погода в Отаре - сегодня

Время (UTC), дата Ветер
(°,м/с) 
Видим.   Явления Облачность Т
(°С)
Тd
(°С)
f(%) Тe
(°С)
Pmin
(гПа)
dP
(гПа)
Po
(мм)
O2
(г/м3)
Тmin Tmax R s Состояние
почвы
15 16.04.18 290 (З) н/о    6/3 1000 м средняя 
[Sc diur, vesp|Ac trans]
+11.9 +4 58 +11  1019.7  0.7  701  270    +14     
18 16.04.18 360 (С) н/о    ясно 
+7.3 +4.5 82 +7  1021  -0.2  700  274    +14     
21 16.04.18 тихо ()   н/о    ясно 
+4.9 +3.5 91 +5  1020.2  -1.4  699  276           
00 17.04.18 тихо ()   20000 м    ясно 
+2.5 +1.2 91 +3  1020.4  -0.6  699  279           
03 17.04.18 090 (В) 20000 м    8/0 верхняя 
[Ci sp]
+10.4 +7.4 82 +11  1017.3  -0.4  699  270           
06 17.04.18 090 (В) 20000 м    8/0 верхняя 
[Ci sp]
+15.4 +6.1 54 +15  1014.1  -1.5  697  265  +2.3         
09 17.04.18 070 (В) 20000 м    9/6 2000 м средняя, верхняя 
[Ac und|Ci sp]
+17.4 +7 50 +17  1011.6  -1.9  696  262           
12 17.04.18 090 (В) 20000 м    9/8 2000 м средняя, верхняя 
[Ac und|Ci sp]
+17.6 +6.8 49 +18  1010.7  -0.7  695  262           
15 17.04.18 тихо ()   н/о    8/8 1000 м 
[Sc]
+14.2 +9.2 72 +16  1011.4  -0.3  695  265    +18.8       
18 17.04.18 250 (З) н/о    10/10 1000 м 
[Sc]
+9.8 +7.7 87 +10  1012.2  -0.5  695  269    +18.8       
21 17.04.18 080 (В) н/о    10/10 1000 м 
[Sc]
+8.2 +1.9 64 +6  1017.4  4.2  698  273           
00 18.04.18 230 (ЮЗ) 20000 м    10/10 1000 м 
[Sc]
+6.8 +3.8 81 +4  1019.7  1.8  699  274           
03 18.04.18 200 (Ю) 20000 м    10/10 1000 м 
[Sc]
+4.8 +2.1 83 +2  1023.9  3.1  702  277           
06 18.04.18 250 (З) 10  20000 м    10/10 1000 м 
[Sc]
+6.4 +2 73 +3  1025.8  2.3  711  279  +4.6         
09 18.04.18 270 (З) 10  20000 м    8/8 1000 м 
[Sc]
+7.5 +1.3 65 +4  1024.4  -0.9  703  275           
12 18.04.18 270 (З) 20000 м    8/8 1000 м 
[Sc]
+8.2 +3 70 +6  1025.4  1.1  704  275           
15 18.04.18 250 (З) н/о    10/10 1000 м 
[Sc]
+6.8 +2.2 72 +5  1026.2  0.3  704  276    +10.5       
18 18.04.18 270 (З) н/о    6/3 1000 м средняя 
[Sc diur, vesp|Ac trans]
+5 +2 81 +4  1026.8  704  278    +10.5       
21 18.04.18 тихо ()   н/о    ясно 
+3.9 +1.1 82 +4  1025.3  -1.7  703  279           
00 19.04.18 тихо ()   20000 м    3/3 2000 м средняя 
[Ac trans]
+2.4 +0.3 86 +2  1026.1  0.3  703  281           
03 19.04.18 тихо ()   20000 м    3/0 верхняя 
[Ci fib]
+7.1 +1.5 68 +7  1023.1  -1.4  702  275           
06 19.04.18 тихо ()   20000 м    8/5 1000 м верхняя 
[Cu med, cong|Ci fib]
+12.4 -1.7 37 +12  1020.6  -0.8  701  270  +2.2         
09 19.04.18 тихо ()   20000 м    8/6 1000 м верхняя 
[Cu med, cong|Ci fib]
+12.8 -2.5 34 +13  1019.4  -1  700  270           
12 19.04.18 290 (З) 20000 м    9/6 1000 м средняя, верхняя 
[Cu med, cong|Ac trans|Ci fib]
+13.4 -1.2 36 +13  1019  -0.1  700  269           
15 19.04.18 тихо ()   н/о    8/5 600 м кучево-дожд., средняя 
[Cb cap|Ac und]
+9.2 +2.7 64 +9  1021.3  0.9  701  273    +14.3       
Время (UTC), дата Ветер
(°,м/с) 
Видим.   Явления Облачность Т
(°С)
Тd
(°С)
f(%) Тe
(°С)
Pmin
(гПа)
dP
(гПа)
Po
(мм)
O2
(г/м3)
Тmin Tmax R s Состояние
почвы

Для получения пояснительной информации подведите курсор к названию столбца.

ПОГОДА в Отаре - архив

Всё, что Вы хотите узнать о погоде в Отаре - удобно и подробно!

Выберите нужную дату (начиная с 1 января 2015* года) и нажмите кнопку "Найти".
Будут отображены архивные сводки погоды по пункту Отар, начиная с указанной даты.


Отображать данные в формате CSV (для использования в таблицах Excel)


Внимание! Наш архив погоды предназначен исключительно для личного некоммерческого использования в познавательных целях. Если Вам необходимы официальные справки о состоянии погоды (для производственных, юридических, коммерческих и т.п. целей), обращайтесь в органы Росгидромета.

*Примечание: данная дата относится к архиву по метеостанциям СССР (Россия, СНГ, Балтия).
Архив по метеостанциям Зарубежной Европы и Азии (кроме Китая) хранится 10 дней, по другим регионам земного шара (Китай, Африка, Америка, Австралия, Океания) - 1 день.

Отар - район местоположения метеостанции


Название, широта, долгота, высота метеостанции:
Отар 43.5°ш. 75.2°д. 743 м над ур. моря [Казахстан]

Дополнительная информация

В oтличие oт бoльшинства пoгoдных сайтoв мы публикуем пoдрoбную метеoинфoрмацию в детальнoм прoфессиoнальнoм фoрмате.

Характеристики температуры и влажнoсти вoздуха измеряются на высoте 2 м в тени вдали oт зданий и деревьев.
Скoрoсть ветра измеряется на высoте 10 м (на урoвне рoста челoвека скoрoсть ветра ниже в 1.5-2 раза). Если метеoстанция нахoдится в гoрoде или в лесу, тo скoрoсть ветра занижена на 2-4 м/с пo сравнению с oткрытым местoм. Скoрoсть ветра над акватoриями крупных рек и oзёр, а также на вершинах хoлмoв на 2-5 м/с выше, чем в oбычных услoвиях.
Атмoсфернoе давление в разных тoчках местнoсти мoжет значительнo oтличаться oт давления на метеoстанции, в зависимoсти oт услoвий рельефа (при пoдъёме на 10 м давление пoнижается примернo на 1 мм рт.ст.).